Volver al catálogo

COSMOS 1656

ActivoMilitarLEO
NORAD 15755·PAYLOAD·🇷🇺 Russia

Lanzado May 30, 1985 desde Baikonur Cosmodrome

Loading…

Próximos Pases (próximas 24 horas)

TLE

ActualizadoSource: Space-Track

Época: Sep 14, 2026, 12:16 UTC

1 15755U 85042A   26257.51145653  .00000066  00000-0  52253-4 0  9997
2 15755  71.1098  87.7490 0036089 208.5480 151.3672 14.21019080139856

Sigue COSMOS 1656 en tiempo real con AllMySat

Download on the App Store